Radioactive Concentration measured by Seawater Radiation Monitor near Fukushima Daiichi Nuclear Power Station
Date,Time,Cs137(Bq/L),Cs134(Bq/L),Total β(Bq/L)
2021/01/28,00:00,ND,ND,12
2021/01/28,00:10,ND,ND,11
2021/01/28,00:20,ND,ND,10
2021/01/28,00:30,ND,ND,11
2021/01/28,00:40,ND,ND,14
2021/01/28,00:50,ND,ND,12
2021/01/28,01:00,ND,ND,12
2021/01/28,01:10,ND,ND,9.3
2021/01/28,01:20,ND,ND,10
2021/01/28,01:30,ND,ND,8.8
2021/01/28,01:40,ND,ND,ND
2021/01/28,01:50,ND,ND,8.9
2021/01/28,02:00,ND,ND,11
2021/01/28,02:10,ND,ND,12
2021/01/28,02:20,ND,ND,12
2021/01/28,02:30,ND,ND,12
2021/01/28,02:40,ND,ND,9.9
2021/01/28,02:50,ND,ND,8.8
2021/01/28,03:00,ND,ND,9.2
2021/01/28,03:10,ND,ND,12
2021/01/28,03:20,ND,ND,9.2
2021/01/28,03:30,ND,ND,11
2021/01/28,03:40,ND,ND,13
2021/01/28,03:50,ND,ND,13
2021/01/28,04:00,ND,ND,12
2021/01/28,04:10,ND,ND,11
2021/01/28,04:20,ND,ND,11
2021/01/28,04:30,ND,ND,9.3
2021/01/28,04:40,ND,ND,9.3
2021/01/28,04:50,ND,ND,11
2021/01/28,05:00,-,-,10
2021/01/28,05:10,-,-,10
2021/01/28,05:20,-,-,14
2021/01/28,05:30,-,-,14
2021/01/28,05:40,-,-,14
2021/01/28,05:50,-,-,13
2021/01/28,06:00,-,-,13
2021/01/28,06:10,-,-,14
2021/01/28,06:20,-,-,11
2021/01/28,06:30,-,-,13
2021/01/28,06:40,-,-,14
2021/01/28,06:50,-,-,15
2021/01/28,07:00,-,-,15
2021/01/28,07:10,-,-,15
2021/01/28,07:20,-,-,16
2021/01/28,07:30,-,-,14
2021/01/28,07:40,-,-,12
2021/01/28,07:50,-,-,12
2021/01/28,08:00,-,-,10
2021/01/28,08:10,-,-,10
2021/01/28,08:20,-,-,9.5
2021/01/28,08:30,-,-,10
2021/01/28,08:40,-,-,14
2021/01/28,08:50,-,-,16
2021/01/28,09:00,-,-,18
2021/01/28,09:10,-,-,19
2021/01/28,09:20,-,-,20
2021/01/28,09:30,-,-,16
2021/01/28,09:40,-,-,14
2021/01/28,09:50,-,-,13
2021/01/28,10:00,-,-,14
2021/01/28,10:10,-,-,13
2021/01/28,10:20,-,-,12
2021/01/28,10:30,-,-,16
2021/01/28,10:40,-,-,14
2021/01/28,10:50,-,-,14
2021/01/28,11:00,-,-,13
2021/01/28,11:10,-,-,13
2021/01/28,11:20,-,-,15
2021/01/28,11:30,-,-,14
2021/01/28,11:40,-,-,16
2021/01/28,11:50,-,-,17
2021/01/28,12:00,-,-,16
2021/01/28,12:10,-,-,16
2021/01/28,12:20,-,-,15
2021/01/28,12:30,-,-,13
2021/01/28,12:40,-,-,11
2021/01/28,12:50,-,-,9.5
2021/01/28,13:00,-,-,12
2021/01/28,13:10,-,-,12
2021/01/28,13:20,-,-,15
2021/01/28,13:30,-,-,15
2021/01/28,13:40,-,-,15
2021/01/28,13:50,-,-,14
2021/01/28,14:00,-,-,15
2021/01/28,14:10,-,-,13
2021/01/28,14:20,-,-,11
2021/01/28,14:30,-,-,13
2021/01/28,14:40,-,-,16
2021/01/28,14:50,-,-,16
2021/01/28,15:00,-,-,18
2021/01/28,15:10,-,-,19
2021/01/28,15:20,-,-,17
2021/01/28,15:30,-,-,17
2021/01/28,15:40,-,-,14
2021/01/28,15:50,-,-,14
2021/01/28,16:00,-,-,8.9
2021/01/28,16:10,-,-,ND
2021/01/28,16:20,-,-,10
2021/01/28,16:30,-,-,11
2021/01/28,16:40,-,-,11
2021/01/28,16:50,-,-,12
2021/01/28,17:00,-,-,15
2021/01/28,17:10,-,-,18
2021/01/28,17:20,-,-,17
2021/01/28,17:30,-,-,15
2021/01/28,17:40,-,-,16
2021/01/28,17:50,-,-,16
2021/01/28,18:00,-,-,15
2021/01/28,18:10,-,-,14
2021/01/28,18:20,-,-,9.7
2021/01/28,18:30,-,-,11
2021/01/28,18:40,-,-,11
2021/01/28,18:50,-,-,11
2021/01/28,19:00,-,-,11
2021/01/28,19:10,-,-,13
2021/01/28,19:20,-,-,15
2021/01/28,19:30,-,-,14
2021/01/28,19:40,-,-,15
2021/01/28,19:50,-,-,17
2021/01/28,20:00,-,-,21
2021/01/28,20:10,-,-,19
2021/01/28,20:20,-,-,19
2021/01/28,20:30,-,-,20
2021/01/28,20:40,-,-,19
2021/01/28,20:50,-,-,20
2021/01/28,21:00,-,-,17
2021/01/28,21:10,-,-,17
2021/01/28,21:20,-,-,21
2021/01/28,21:30,-,-,22
2021/01/28,21:40,-,-,23
2021/01/28,21:50,-,-,20
2021/01/28,22:00,-,-,21
2021/01/28,22:10,-,-,19
2021/01/28,22:20,-,-,18
2021/01/28,22:30,-,-,17
2021/01/28,22:40,-,-,15
2021/01/28,22:50,-,-,17
2021/01/28,23:00,-,-,18
2021/01/28,23:10,-,-,18
2021/01/28,23:20,-,-,18
2021/01/28,23:30,-,-,17
2021/01/28,23:40,-,-,19
2021/01/28,23:50,-,-,19
